Torna al catalogo

SL-16 DEB

AttivoLEO
NORAD 26077·DEBRIS·🇷🇺 Russia

Lanciato Feb 3, 2000 da Baikonur Cosmodrome

Loading…

Prossimi Passaggi (prossime 24 ore)

TLE

AggiornatoSource: Space-Track

Epoca: Sep 14, 2026, 05:52 UTC

1 26077U 00006G   26257.24461475  .00000081  00000-0  11459-3 0  9995
2 26077  70.9714 353.9783 0203684  21.3507   5.5283 13.73342934333226

Traccia SL-16 DEB in tempo reale con AllMySat

Download on the App Store